,,,PA_Meas_PMT16A,,PR_Meas_QMR101_102,,RH_Meas_QMH101,,SR_Meas_QMS101,,TA_Meas_QMH101,,GenWind,,GenWind,
date,time,status,PA,status,PR,status,RH,status,SR,status,TA,status,DirAvg,status,SpdAvg,
2010-02-13, 00:00:04,VALID,1002.23,VALID,0,VALID,89.8006,VALID,0,VALID,23.6427,VALID,185,VALID,1.53516,
2010-02-13, 00:01:04,VALID,1002.25,VALID,0,VALID,89.4802,VALID,0,VALID,23.6232,VALID,189,VALID,1.84063,
2010-02-13, 00:02:04,VALID,1002.26,VALID,0,VALID,89.5946,VALID,0,VALID,23.6427,VALID,206,VALID,1.57695,
2010-02-13, 00:03:04,VALID,1002.27,VALID,0,VALID,89.2208,VALID,0,VALID,23.6232,VALID,211,VALID,1.70625,
2010-02-13, 00:04:04,VALID,1002.24,VALID,0,VALID,89.2971,VALID,0,VALID,23.6232,VALID,204,VALID,0.974609,
2010-02-13, 00:05:04,VALID,1002.2,VALID,0,VALID,89.3047,VALID,0,VALID,23.6232,VALID,202,VALID,0.824609,
2010-02-13, 00:06:04,VALID,1002.11,VALID,0,VALID,89.2818,VALID,0,VALID,23.6232,VALID,219,VALID,1.58438,
2010-02-13, 00:07:04,VALID,1002.08,VALID,0,VALID,89.3581,VALID,0,VALID,23.6427,VALID,211,VALID,2.07031,
2010-02-13, 00:08:04,VALID,1002.18,VALID,0,VALID,89.2437,VALID,0,VALID,23.6622,VALID,193,VALID,1.26094,
2010-02-13, 00:09:04,VALID,1002.21,VALID,0,VALID,89.1979,VALID,0,VALID,23.6817,VALID,237,VALID,0.632031,
2010-02-13, 00:10:04,VALID,1002.24,VALID,0,VALID,89.0606,VALID,0,VALID,23.6622,VALID,208,VALID,0.046875,
2010-02-13, 00:11:04,VALID,1002.2,VALID,0,VALID,89.1826,VALID,0,VALID,23.6817,VALID,212,VALID,0,
2010-02-13, 00:12:04,VALID,1002.19,VALID,0,VALID,89.3047,VALID,0,VALID,23.6817,VALID,217,VALID,0,
2010-02-13, 00:13:04,VALID,1002.17,VALID,0,VALID,89.4039,VALID,0,VALID,23.6817,VALID,278,VALID,0,
2010-02-13, 00:14:04,VALID,1002.12,VALID,0,VALID,89.4878,VALID,0,VALID,23.6427,VALID,294,VALID,1.24375,
2010-02-13, 00:15:04,VALID,1002.08,VALID,0,VALID,89.5565,VALID,0,VALID,23.5841,VALID,294,VALID,1.47422,
2010-02-13, 00:16:04,VALID,1002.09,VALID,0,VALID,89.8998,VALID,0,VALID,23.5664,VALID,285,VALID,0.870703,
2010-02-13, 00:17:04,VALID,1002.08,VALID,0,VALID,89.8998,VALID,0,VALID,23.5256,VALID,249,VALID,0.441016,
2010-02-13, 00:18:04,VALID,1002,VALID,0,VALID,89.8769,VALID,0,VALID,23.5061,VALID,237,VALID,1.70898,
2010-02-13, 00:19:04,VALID,1002.06,VALID,0,VALID,89.9761,VALID,0,VALID,23.5274,VALID,255,VALID,0.951953,
2010-02-13, 00:20:04,VALID,1002.1,VALID,0,VALID,89.938,VALID,0,VALID,23.5256,VALID,192,VALID,1.05625,
2010-02-13, 00:21:04,VALID,1002.09,VALID,0,VALID,87.4278,VALID,0,VALID,23.5256,VALID,183,VALID,1.20391,
2010-02-13, 00:22:04,VALID,1002.09,VALID,0,VALID,86.97,VALID,0,VALID,23.6427,VALID,157,VALID,0.716016,
2010-02-13, 00:23:04,VALID,1002.07,VALID,0,VALID,88.5494,VALID,0,VALID,23.7402,VALID,182,VALID,1.51523,
2010-02-13, 00:24:04,VALID,1002.08,VALID,0,VALID,88.7859,VALID,0,VALID,23.7988,VALID,185,VALID,2.29453,
2010-02-13, 00:25:04,VALID,1002.02,VALID,0,VALID,88.4883,VALID,0,VALID,23.8378,VALID,184,VALID,2.4918,
2010-02-13, 00:26:04,VALID,1002.04,VALID,0,VALID,87.9771,VALID,0,VALID,23.8768,VALID,170,VALID,1.82461,
2010-02-13, 00:27:04,VALID,1001.98,VALID,0,VALID,88.1755,VALID,0,VALID,23.8963,VALID,177,VALID,1.72852,
2010-02-13, 00:28:04,VALID,1002.02,VALID,0,VALID,88.1221,VALID,0,VALID,23.9354,VALID,182,VALID,1.38398,
2010-02-13, 00:29:04,VALID,1002.01,VALID,0,VALID,88.0992,VALID,0,VALID,23.9159,VALID,194,VALID,1.51016,
2010-02-13, 00:30:04,VALID,1001.97,VALID,0,VALID,87.6949,VALID,0,VALID,23.9159,VALID,211,VALID,0.725391,
2010-02-13, 00:31:04,VALID,1001.97,VALID,0,VALID,87.8474,VALID,0,VALID,23.9159,VALID,221,VALID,0.277344,
2010-02-13, 00:32:04,VALID,1001.94,VALID,0,VALID,87.9771,VALID,0,VALID,23.8963,VALID,268,VALID,0.314063,
2010-02-13, 00:33:04,VALID,1001.9,VALID,0,VALID,88.1679,VALID,0,VALID,23.8768,VALID,278,VALID,1.08633,
2010-02-13, 00:34:04,VALID,1001.89,VALID,0,VALID,88.2747,VALID,0,VALID,23.8183,VALID,292,VALID,0.952734,
2010-02-13, 00:35:04,VALID,1001.9,VALID,0,VALID,88.3586,VALID,0,VALID,23.7793,VALID,287,VALID,0.345703,
2010-02-13, 00:36:04,VALID,1001.84,VALID,0,VALID,88.2976,VALID,0,VALID,23.7597,VALID,235,VALID,0.680078,
2010-02-13, 00:37:04,VALID,1001.82,VALID,0,VALID,88.2213,VALID,0,VALID,23.7597,VALID,127,VALID,1.28164,
2010-02-13, 00:38:04,VALID,1001.79,VALID,0,VALID,87.588,VALID,0,VALID,23.7793,VALID,200,VALID,1.26602,
2010-02-13, 00:39:04,VALID,1001.75,VALID,0,VALID,86.2681,VALID,0,VALID,23.8183,VALID,177,VALID,1.05391,
2010-02-13, 00:40:04,VALID,1001.7,VALID,0,VALID,87.0616,VALID,0,VALID,23.8963,VALID,190,VALID,0.458203,
2010-02-13, 00:41:04,VALID,1001.66,VALID,0,VALID,83.8648,VALID,0,VALID,23.8768,VALID,152,VALID,0.985547,
2010-02-13, 00:42:04,VALID,1001.61,VALID,0,VALID,83.5443,VALID,0,VALID,23.9744,VALID,77,VALID,0.415234,
2010-02-13, 00:43:04,VALID,1001.61,VALID,0,VALID,85.055,VALID,0,VALID,24.072,VALID,168,VALID,1.06836,
2010-02-13, 00:44:04,VALID,1001.58,VALID,0,VALID,84.7574,VALID,0,VALID,24.111,VALID,182,VALID,1.05742,
2010-02-13, 00:45:04,VALID,1001.55,VALID,0,VALID,84.437,VALID,0,VALID,24.1909,VALID,187,VALID,1.18789,
2010-02-13, 00:46:04,VALID,1001.54,VALID,0,VALID,83.8266,VALID,0,VALID,24.2281,VALID,188,VALID,0.928125,
2010-02-13, 00:47:04,VALID,1001.56,VALID,0,VALID,83.9869,VALID,0,VALID,24.2653,VALID,191,VALID,0.928516,
2010-02-13, 00:48:04,VALID,1001.51,VALID,0,VALID,84.2234,VALID,0,VALID,24.2866,VALID,197,VALID,0.873047,
2010-02-13, 00:49:04,VALID,1001.52,VALID,0,VALID,84.8414,VALID,0,VALID,24.2866,VALID,197,VALID,0.972656,
2010-02-13, 00:50:04,VALID,1001.51,VALID,0,VALID,85.1084,VALID,0,VALID,24.2671,VALID,197,VALID,0.713281,
2010-02-13, 00:51:04,VALID,1001.51,VALID,0,VALID,85.2229,VALID,0,VALID,24.2476,VALID,197,VALID,0.811328,
2010-02-13, 00:52:04,VALID,1001.53,VALID,0,VALID,84.6735,VALID,0,VALID,24.2671,VALID,189,VALID,1.03203,
2010-02-13, 00:53:04,VALID,1001.53,VALID,0,VALID,83.8724,VALID,0,VALID,24.2476,VALID,180,VALID,0.988672,
2010-02-13, 00:54:04,VALID,1001.56,VALID,0,VALID,84.1395,VALID,0,VALID,24.2866,VALID,166,VALID,0.904688,
2010-02-13, 00:55:04,VALID,1001.57,VALID,0,VALID,84.4141,VALID,0,VALID,24.2866,VALID,136,VALID,0.876562,
2010-02-13, 00:56:04,VALID,1001.6,VALID,0,VALID,84.9634,VALID,0,VALID,24.3062,VALID,143,VALID,0.90625,
2010-02-13, 00:57:04,VALID,1001.6,VALID,0,VALID,85.4365,VALID,0,VALID,24.2671,VALID,73,VALID,0.401953,
2010-02-13, 00:58:04,VALID,1001.58,VALID,0,VALID,85.9172,VALID,0,VALID,24.2476,VALID,26,VALID,0.198047,
2010-02-13, 00:59:04,VALID,1001.59,VALID,0,VALID,86.4512,VALID,0,VALID,24.1891,VALID,26,VALID,0,
2010-02-13, 01:00:04,VALID,1001.58,VALID,0,VALID,86.8861,VALID,0,VALID,24.1092,VALID,26,VALID,0,
2010-02-13, 01:01:04,VALID,1001.59,VALID,0,VALID,87.0997,VALID,0,VALID,24.0329,VALID,26,VALID,0,
2010-02-13, 01:02:04,VALID,1001.59,VALID,0,VALID,87.4812,VALID,0,VALID,23.9939,VALID,26,VALID,0,
2010-02-13, 01:03:04,VALID,1001.6,VALID,0,VALID,87.7483,VALID,0,VALID,23.9549,VALID,26,VALID,0,
2010-02-13, 01:04:04,VALID,1001.6,VALID,0,VALID,87.8856,VALID,0,VALID,23.9159,VALID,26,VALID,0,
2010-02-13, 01:05:04,VALID,1001.59,VALID,0,VALID,88.0992,VALID,0,VALID,23.8963,VALID,26,VALID,0,
2010-02-13, 01:06:04,VALID,1001.55,VALID,0,VALID,88.351,VALID,0,VALID,23.8768,VALID,177,VALID,0.0269531,
2010-02-13, 01:07:04,VALID,1001.55,VALID,0,VALID,88.9843,VALID,0,VALID,23.8768,VALID,148,VALID,1.475,
2010-02-13, 01:08:04,VALID,1001.5,VALID,0,VALID,88.7325,VALID,0,VALID,23.8555,VALID,145,VALID,1.79453,
2010-02-13, 01:09:04,VALID,1001.49,VALID,0,VALID,87.8474,VALID,0,VALID,23.8768,VALID,158,VALID,1.93867,
2010-02-13, 01:10:04,VALID,1001.48,VALID,0,VALID,88.0763,VALID,0,VALID,23.9159,VALID,163,VALID,1.50117,
2010-02-13, 01:11:04,VALID,1001.46,VALID,0,VALID,87.4126,VALID,0,VALID,23.9354,VALID,162,VALID,1.15703,
2010-02-13, 01:12:04,VALID,1001.43,VALID,0,VALID,87.0463,VALID,0,VALID,23.9549,VALID,163,VALID,1.4707,
2010-02-13, 01:13:04,VALID,1001.46,VALID,0,VALID,86.9014,VALID,0,VALID,23.9744,VALID,153,VALID,1.57031,
2010-02-13, 01:14:04,VALID,1001.46,VALID,0,VALID,86.9853,VALID,0,VALID,23.9744,VALID,158,VALID,1.71563,
2010-02-13, 01:15:04,VALID,1001.42,VALID,0,VALID,86.4512,VALID,0,VALID,23.9744,VALID,158,VALID,1.90313,
2010-02-13, 01:16:04,VALID,1001.4,VALID,0,VALID,86.0011,VALID,0,VALID,23.9939,VALID,152,VALID,2.01602,
2010-02-13, 01:17:04,VALID,1001.38,VALID,0,VALID,85.5967,VALID,0,VALID,23.9939,VALID,154,VALID,1.75625,
2010-02-13, 01:18:04,VALID,1001.33,VALID,0,VALID,84.0784,VALID,0,VALID,23.9939,VALID,148,VALID,1.88359,
2010-02-13, 01:19:04,VALID,1001.33,VALID,0,VALID,82.8424,VALID,0,VALID,24.0329,VALID,146,VALID,2.02695,
2010-02-13, 01:20:04,VALID,1001.31,VALID,0,VALID,82.2015,VALID,0,VALID,24.0933,VALID,145,VALID,2.4875,
2010-02-13, 01:21:04,VALID,1001.3,VALID,0,VALID,81.9421,VALID,0,VALID,24.0897,VALID,141,VALID,2.40547,
2010-02-13, 01:22:04,VALID,1001.28,VALID,0,VALID,82.6212,VALID,0,VALID,24.1305,VALID,144,VALID,2.2043,
2010-02-13, 01:23:04,VALID,1001.33,VALID,0,VALID,82.4991,VALID,0,VALID,24.111,VALID,142,VALID,2.16211,
2010-02-13, 01:24:04,VALID,1001.32,VALID,0,VALID,82.5525,VALID,0,VALID,24.111,VALID,131,VALID,2.39258,
2010-02-13, 01:25:04,VALID,1001.34,VALID,0,VALID,82.8958,VALID,0,VALID,24.0915,VALID,128,VALID,2.18516,
2010-02-13, 01:26:04,VALID,1001.3,VALID,0,VALID,82.5906,VALID,0,VALID,24.0329,VALID,137,VALID,2.61953,
2010-02-13, 01:27:04,VALID,1001.28,VALID,0,VALID,82.4075,VALID,0,VALID,24.0329,VALID,136,VALID,2.49258,
2010-02-13, 01:28:04,VALID,1001.26,VALID,0,VALID,82.3465,VALID,0,VALID,24.0134,VALID,139,VALID,2.57656,
2010-02-13, 01:29:04,VALID,1001.28,VALID,0,VALID,82.6364,VALID,0,VALID,24.0329,VALID,135,VALID,3.00273,
2010-02-13, 01:30:04,VALID,1001.27,VALID,0,VALID,82.8577,VALID,0,VALID,23.9939,VALID,136,VALID,2.65234,
2010-02-13, 01:31:04,VALID,1001.28,VALID,0,VALID,82.7509,VALID,0,VALID,23.9549,VALID,127,VALID,3.39297,
2010-02-13, 01:32:04,VALID,1001.27,VALID,0,VALID,83.3536,VALID,0,VALID,23.9354,VALID,133,VALID,2.66836,
2010-02-13, 01:33:04,VALID,1001.26,VALID,0,VALID,83.8877,VALID,0,VALID,23.8768,VALID,138,VALID,2.61406,
2010-02-13, 01:34:04,VALID,1001.3,VALID,0,VALID,84.1623,VALID,0,VALID,23.8183,VALID,138,VALID,2.76797,
2010-02-13, 01:35:04,VALID,1001.31,VALID,0,VALID,84.3302,VALID,0,VALID,23.7402,VALID,134,VALID,3.22539,
2010-02-13, 01:36:04,VALID,1001.32,VALID,0,VALID,84.6277,VALID,0,VALID,23.6622,VALID,130,VALID,3.04961,
2010-02-13, 01:37:04,VALID,1001.31,VALID,0,VALID,84.9406,VALID,0,VALID,23.6036,VALID,136,VALID,3.25742,
2010-02-13, 01:38:04,VALID,1001.3,VALID,0,VALID,85.8103,VALID,0,VALID,23.5256,VALID,143,VALID,2.65742,
2010-02-13, 01:39:04,VALID,1001.26,VALID,0,VALID,86.4283,VALID,0,VALID,23.4475,VALID,145,VALID,2.21094,
2010-02-13, 01:40:04,VALID,1001.25,VALID,0,VALID,86.5962,VALID,0,VALID,23.35,VALID,137,VALID,3.09687,
2010-02-13, 01:41:04,VALID,1001.3,VALID,0,VALID,87.1074,VALID,0,VALID,23.2915,VALID,135,VALID,2.42812,
2010-02-13, 01:42:04,VALID,1001.32,VALID,0,VALID,87.3897,VALID,0,VALID,23.2329,VALID,137,VALID,2.36016,
2010-02-13, 01:43:04,VALID,1001.32,VALID,0,VALID,87.5728,VALID,0,VALID,23.1939,VALID,134,VALID,2.51602,
2010-02-13, 01:44:04,VALID,1001.3,VALID,0,VALID,87.7483,VALID,0,VALID,23.1549,VALID,135,VALID,2.98477,
2010-02-13, 01:45:04,VALID,1001.32,VALID,0,VALID,88.3739,VALID,0,VALID,23.1354,VALID,148,VALID,1.66953,
2010-02-13, 01:46:04,VALID,1001.31,VALID,0,VALID,88.1984,VALID,0,VALID,23.0769,VALID,143,VALID,2.55273,
2010-02-13, 01:47:04,VALID,1001.31,VALID,0,VALID,88.2594,VALID,0,VALID,23.0573,VALID,137,VALID,1.99219,
2010-02-13, 01:48:04,VALID,1001.29,VALID,0,VALID,88.496,VALID,0,VALID,23.0573,VALID,145,VALID,1.67461,
2010-02-13, 01:49:04,VALID,1001.27,VALID,0.5,VALID,88.3815,VALID,0,VALID,23.0378,VALID,145,VALID,1.78398,
2010-02-13, 01:50:04,VALID,1001.3,VALID,0,VALID,88.5494,VALID,0,VALID,23.0573,VALID,137,VALID,2.03437,
2010-02-13, 01:51:04,VALID,1001.28,VALID,0,VALID,88.4426,VALID,0,VALID,23.0378,VALID,134,VALID,1.87852,
2010-02-13, 01:52:04,VALID,1001.34,VALID,0,VALID,88.7249,VALID,0,VALID,23.0573,VALID,132,VALID,1.33125,
2010-02-13, 01:53:04,VALID,1001.33,VALID,0,VALID,88.6791,VALID,0,VALID,23.0573,VALID,128,VALID,1.6043,
2010-02-13, 01:54:04,VALID,1001.33,VALID,0,VALID,88.4197,VALID,0,VALID,23.0183,VALID,132,VALID,2.63164,
2010-02-13, 01:55:04,VALID,1001.3,VALID,0,VALID,88.4807,VALID,0,VALID,23.0378,VALID,136,VALID,2.00547,
2010-02-13, 01:56:04,VALID,1001.33,VALID,0,VALID,88.4578,VALID,0,VALID,23.0573,VALID,131,VALID,2.0625,
2010-02-13, 01:57:04,VALID,1001.33,VALID,0,VALID,88.3892,VALID,0,VALID,23.0573,VALID,118,VALID,2.34336,
2010-02-13, 01:58:04,VALID,1001.34,VALID,0,VALID,88.4044,VALID,0,VALID,23.0378,VALID,116,VALID,2.18047,
2010-02-13, 01:59:04,VALID,1001.38,VALID,0,VALID,88.3663,VALID,0,VALID,23.0573,VALID,114,VALID,1.96406,
2010-02-13, 02:00:04,VALID,1001.38,VALID,0,VALID,88.1755,VALID,0,VALID,23.0573,VALID,116,VALID,2.35938,
2010-02-13, 02:01:04,VALID,1001.38,VALID,0,VALID,88.5494,VALID,0,VALID,23.0769,VALID,113,VALID,1.6918,
2010-02-13, 02:02:04,VALID,1001.37,VALID,0,VALID,88.1679,VALID,0,VALID,23.0573,VALID,101,VALID,1.98555,
2010-02-13, 02:03:04,VALID,1001.38,VALID,0,VALID,88.0153,VALID,0,VALID,23.0769,VALID,99,VALID,1.99727,
2010-02-13, 02:04:04,VALID,1001.43,VALID,0,VALID,87.9161,VALID,0,VALID,23.0769,VALID,96,VALID,2.32695,
2010-02-13, 02:05:04,VALID,1001.38,VALID,0,VALID,88.1068,VALID,0,VALID,23.0769,VALID,101,VALID,1.32266,
2010-02-13, 02:06:04,VALID,1001.4,VALID,0,VALID,88.0153,VALID,0,VALID,23.0573,VALID,106,VALID,1.57813,
2010-02-13, 02:07:04,VALID,1001.41,VALID,0,VALID,88.0763,VALID,0,VALID,23.0573,VALID,109,VALID,1.6043,
2010-02-13, 02:08:04,VALID,1001.37,VALID,0,VALID,88.2594,VALID,0,VALID,23.0378,VALID,111,VALID,1.32305,
2010-02-13, 02:09:04,VALID,1001.31,VALID,0,VALID,88.0458,VALID,0,VALID,23.0183,VALID,126,VALID,1.79922,
2010-02-13, 02:10:04,VALID,1001.3,VALID,0,VALID,88.1832,VALID,0,VALID,23.0183,VALID,121,VALID,1.2957,
2010-02-13, 02:11:04,VALID,1001.27,VALID,0,VALID,88.4044,VALID,0,VALID,23.0183,VALID,126,VALID,0.971094,
2010-02-13, 02:12:04,VALID,1001.25,VALID,0,VALID,88.4883,VALID,0,VALID,22.9988,VALID,115,VALID,1.03203,
2010-02-13, 02:13:04,VALID,1001.23,VALID,0,VALID,88.5723,VALID,0,VALID,22.9793,VALID,110,VALID,1.00039,
2010-02-13, 02:14:04,VALID,1001.19,VALID,0,VALID,88.6867,VALID,0,VALID,22.9598,VALID,140,VALID,1.37969,
2010-02-13, 02:15:04,VALID,1001.11,VALID,0,VALID,88.7859,VALID,0,VALID,22.919,VALID,151,VALID,1.21563,
2010-02-13, 02:16:04,VALID,1001.08,VALID,0,VALID,88.9156,VALID,0,VALID,22.8995,VALID,165,VALID,0.902344,
2010-02-13, 02:17:04,VALID,1001.09,VALID,0,VALID,88.9537,VALID,0,VALID,22.9013,VALID,164,VALID,0.434766,
2010-02-13, 02:18:04,VALID,1001.1,VALID,0,VALID,89.0071,VALID,0,VALID,22.8818,VALID,164,VALID,0.00195313,
2010-02-13, 02:19:04,VALID,1001.04,VALID,0,VALID,89.0758,VALID,0,VALID,22.8623,VALID,164,VALID,0,
2010-02-13, 02:20:04,VALID,1001.04,VALID,0,VALID,89.2589,VALID,0,VALID,22.8427,VALID,164,VALID,0,
2010-02-13, 02:21:04,VALID,1001,VALID,0,VALID,89.2818,VALID,0,VALID,22.8427,VALID,164,VALID,0,
2010-02-13, 02:22:04,VALID,1000.99,VALID,0,VALID,89.4344,VALID,0,VALID,22.8232,VALID,160,VALID,0.717188,
2010-02-13, 02:23:04,VALID,1000.98,VALID,0,VALID,89.32,VALID,0,VALID,22.8232,VALID,158,VALID,0.757031,
2010-02-13, 02:24:04,VALID,1000.99,VALID,0,VALID,89.3276,VALID,0,VALID,22.8037,VALID,158,VALID,0.00195313,
2010-02-13, 02:25:04,VALID,1000.99,VALID,0,VALID,89.4649,VALID,0,VALID,22.8037,VALID,158,VALID,0,
2010-02-13, 02:26:04,VALID,1000.98,VALID,0,VALID,89.6023,VALID,0,VALID,22.8232,VALID,158,VALID,0,
2010-02-13, 02:27:04,VALID,1001,VALID,0,VALID,89.6175,VALID,0,VALID,22.8037,VALID,158,VALID,0,
2010-02-13, 02:28:04,VALID,1000.96,VALID,0,VALID,89.7625,VALID,0.112286,VALID,22.8037,VALID,158,VALID,0,
2010-02-13, 02:29:04,VALID,1000.97,VALID,0,VALID,89.9532,VALID,0,VALID,22.8037,VALID,170,VALID,0,
2010-02-13, 02:30:04,VALID,1000.92,VALID,0,VALID,89.9761,VALID,0,VALID,22.8232,VALID,226,VALID,0,
2010-02-13, 02:31:04,VALID,1000.93,VALID,0,VALID,90.1592,VALID,0,VALID,22.7825,VALID,226,VALID,0,
2010-02-13, 02:32:04,VALID,1000.91,VALID,0,VALID,90.2126,VALID,0,VALID,22.8037,VALID,226,VALID,0,
2010-02-13, 02:33:04,VALID,1000.92,VALID,0,VALID,90.2737,VALID,0,VALID,22.8037,VALID,226,VALID,0,
2010-02-13, 02:34:04,VALID,1000.92,VALID,0,VALID,90.3347,VALID,0,VALID,22.8037,VALID,226,VALID,0,
2010-02-13, 02:35:04,VALID,1000.88,VALID,0,VALID,90.5254,VALID,0,VALID,22.8037,VALID,244,VALID,0,
2010-02-13, 02:36:04,VALID,1000.88,VALID,0,VALID,90.6628,VALID,0,VALID,22.8232,VALID,271,VALID,0,
2010-02-13, 02:37:04,VALID,1000.83,VALID,0,VALID,90.678,VALID,0,VALID,22.8037,VALID,274,VALID,0,
2010-02-13, 02:38:04,VALID,1000.83,VALID,0,VALID,90.7543,VALID,0,VALID,22.7842,VALID,273,VALID,0,
2010-02-13, 02:39:04,VALID,1000.85,VALID,0,VALID,90.8383,VALID,0,VALID,22.7452,VALID,268,VALID,0,
2010-02-13, 02:40:04,VALID,1000.81,VALID,0,VALID,90.9527,VALID,0,VALID,22.7647,VALID,268,VALID,0,
2010-02-13, 02:41:04,VALID,1000.78,VALID,0,VALID,90.9985,VALID,0,VALID,22.7647,VALID,266,VALID,0,
2010-02-13, 02:42:04,VALID,1000.78,VALID,0,VALID,91.1282,VALID,0,VALID,22.7647,VALID,239,VALID,0,
2010-02-13, 02:43:04,VALID,1000.77,VALID,0,VALID,91.2197,VALID,0,VALID,22.7647,VALID,222,VALID,0,
2010-02-13, 02:44:04,VALID,1000.79,VALID,0,VALID,91.2426,VALID,0,VALID,22.7647,VALID,203,VALID,0,
2010-02-13, 02:45:04,VALID,1000.79,VALID,0,VALID,91.2197,VALID,0,VALID,22.7452,VALID,204,VALID,0,
2010-02-13, 02:46:04,VALID,1000.8,VALID,0,VALID,91.2884,VALID,0,VALID,22.7452,VALID,212,VALID,0,
2010-02-13, 02:47:04,VALID,1000.79,VALID,0,VALID,91.3723,VALID,0,VALID,22.7452,VALID,212,VALID,0,
2010-02-13, 02:48:04,VALID,1000.78,VALID,0,VALID,91.3494,VALID,0,VALID,22.7257,VALID,212,VALID,0,
2010-02-13, 02:49:04,VALID,1000.74,VALID,0,VALID,91.1968,VALID,0,VALID,22.7257,VALID,212,VALID,0,
2010-02-13, 02:50:04,VALID,1000.73,VALID,0,VALID,91.1053,VALID,0,VALID,22.7062,VALID,199,VALID,0.960156,
2010-02-13, 02:51:04,VALID,1000.74,VALID,0,VALID,91.1816,VALID,0,VALID,22.7257,VALID,180,VALID,1.35664,
2010-02-13, 02:52:04,VALID,1000.74,VALID,0,VALID,91.2045,VALID,0,VALID,22.724,VALID,176,VALID,1.56445,
2010-02-13, 02:53:04,VALID,1000.72,VALID,0,VALID,91.2503,VALID,0,VALID,22.7647,VALID,185,VALID,1.38164,
2010-02-13, 02:54:04,VALID,1000.7,VALID,0,VALID,91.2503,VALID,0,VALID,22.763,VALID,182,VALID,1.53477,
2010-02-13, 02:55:04,VALID,1000.68,VALID,0,VALID,91.4257,VALID,0,VALID,22.8037,VALID,177,VALID,1.85781,
2010-02-13, 02:56:04,VALID,1000.67,VALID,0,VALID,91.3647,VALID,0,VALID,22.8232,VALID,171,VALID,1.85547,
2010-02-13, 02:57:04,VALID,1000.65,VALID,0,VALID,91.3342,VALID,0,VALID,22.802,VALID,176,VALID,2.18633,
2010-02-13, 02:58:04,VALID,1000.62,VALID,0,VALID,91.1587,VALID,0,VALID,22.8037,VALID,179,VALID,2.1375,
2010-02-13, 02:59:04,VALID,1000.59,VALID,0,VALID,91.2426,VALID,0,VALID,22.8037,VALID,180,VALID,1.85625,
2010-02-13, 03:00:04,VALID,1000.6,VALID,0,VALID,91.38,VALID,0,VALID,22.8232,VALID,188,VALID,1.85781,
2010-02-13, 03:01:04,VALID,1000.58,VALID,0,VALID,91.1282,VALID,0,VALID,22.8037,VALID,191,VALID,1.74375,
2010-02-13, 03:02:04,VALID,1000.59,VALID,0,VALID,91.3571,VALID,0,VALID,22.8427,VALID,199,VALID,1.18711,
2010-02-13, 03:03:04,VALID,1000.59,VALID,0,VALID,91.2731,VALID,0,VALID,22.8623,VALID,196,VALID,1.27773,
2010-02-13, 03:04:04,VALID,1000.6,VALID,0,VALID,91.1663,VALID,0,VALID,22.8818,VALID,208,VALID,1.28477,
2010-02-13, 03:05:04,VALID,1000.56,VALID,0,VALID,90.9909,VALID,0,VALID,22.8818,VALID,233,VALID,0.698828,
2010-02-13, 03:06:04,VALID,1000.58,VALID,0,VALID,90.7314,VALID,0,VALID,22.8818,VALID,224,VALID,0.866406,
2010-02-13, 03:07:04,VALID,1000.53,VALID,0,VALID,90.8306,VALID,0,VALID,22.9013,VALID,249,VALID,0.814453,
2010-02-13, 03:08:04,VALID,1000.53,VALID,0,VALID,90.9222,VALID,0,VALID,22.9013,VALID,245,VALID,0.862109,
2010-02-13, 03:09:04,VALID,1000.53,VALID,0,VALID,90.9146,VALID,0,VALID,22.8818,VALID,246,VALID,0.686328,
2010-02-13, 03:10:04,VALID,1000.55,VALID,0,VALID,91.0366,VALID,0,VALID,22.9013,VALID,250,VALID,0.354297,
2010-02-13, 03:11:04,VALID,1000.55,VALID,0,VALID,91.0214,VALID,0,VALID,22.8818,VALID,238,VALID,0.808984,
2010-02-13, 03:12:04,VALID,1000.57,VALID,0,VALID,91.0824,VALID,0,VALID,22.8818,VALID,221,VALID,0.634766,
2010-02-13, 03:13:04,VALID,1000.58,VALID,0,VALID,91.0977,VALID,0,VALID,22.8427,VALID,217,VALID,1.01758,
2010-02-13, 03:14:04,VALID,1000.59,VALID,0,VALID,91.1206,VALID,0,VALID,22.8427,VALID,218,VALID,1.07891,
2010-02-13, 03:15:04,VALID,1000.6,VALID,0,VALID,91.0214,VALID,0,VALID,22.8037,VALID,209,VALID,1.40508,
2010-02-13, 03:16:04,VALID,1000.61,VALID,0,VALID,91.1282,VALID,0,VALID,22.7842,VALID,216,VALID,1.13711,
2010-02-13, 03:17:04,VALID,1000.63,VALID,0,VALID,91.3418,VALID,0,VALID,22.7842,VALID,209,VALID,0.770703,
2010-02-13, 03:18:04,VALID,1000.64,VALID,0,VALID,91.3723,VALID,0,VALID,22.7842,VALID,196,VALID,0.881641,
2010-02-13, 03:19:04,VALID,1000.69,VALID,0,VALID,91.4181,VALID,0,VALID,22.763,VALID,196,VALID,1.36836,
2010-02-13, 03:20:04,VALID,1000.63,VALID,0,VALID,91.4486,VALID,0,VALID,22.7647,VALID,191,VALID,0.890625,
2010-02-13, 03:21:04,VALID,1000.65,VALID,0,VALID,91.586,VALID,0,VALID,22.7842,VALID,190,VALID,1.33984,
2010-02-13, 03:22:04,VALID,1000.65,VALID,0,VALID,91.5173,VALID,0,VALID,22.7647,VALID,186,VALID,1.0625,
2010-02-13, 03:23:04,VALID,1000.66,VALID,0,VALID,91.6546,VALID,0,VALID,22.7842,VALID,186,VALID,0.860156,
2010-02-13, 03:24:04,VALID,1000.67,VALID,0,VALID,91.5478,VALID,0,VALID,22.7647,VALID,181,VALID,1.5207,
2010-02-13, 03:25:04,VALID,1000.66,VALID,0,VALID,91.6241,VALID,0,VALID,22.7647,VALID,191,VALID,1.67031,
2010-02-13, 03:26:04,VALID,1000.68,VALID,0,VALID,91.502,VALID,0,VALID,22.7257,VALID,181,VALID,0.985156,
2010-02-13, 03:27:04,VALID,1000.69,VALID,0,VALID,91.7233,VALID,0,VALID,22.7452,VALID,203,VALID,0.569531,
2010-02-13, 03:28:04,VALID,1000.71,VALID,0,VALID,91.6165,VALID,0,VALID,22.7257,VALID,225,VALID,0.800781,
2010-02-13, 03:29:04,VALID,1000.71,VALID,0,VALID,91.6775,VALID,0,VALID,22.7257,VALID,260,VALID,0.599219,
2010-02-13, 03:30:04,VALID,1000.7,VALID,0,VALID,91.6241,VALID,0,VALID,22.7257,VALID,232,VALID,0.396094,
2010-02-13, 03:31:04,VALID,1000.69,VALID,0,VALID,91.6623,VALID,0,VALID,22.7257,VALID,232,VALID,0.364062,
2010-02-13, 03:32:04,VALID,1000.68,VALID,0,VALID,91.708,VALID,0,VALID,22.7257,VALID,203,VALID,0,
2010-02-13, 03:33:04,VALID,1000.68,VALID,0,VALID,91.6699,VALID,0,VALID,22.7274,VALID,174,VALID,1.20039,
2010-02-13, 03:34:04,VALID,1000.71,VALID,0,VALID,91.5402,VALID,0,VALID,22.7079,VALID,184,VALID,0.861719,
2010-02-13, 03:35:04,VALID,1000.7,VALID,0,VALID,91.6317,VALID,0,VALID,22.7062,VALID,182,VALID,1.0418,
2010-02-13, 03:36:04,VALID,1000.72,VALID,0,VALID,91.5402,VALID,0,VALID,22.6867,VALID,176,VALID,0.958594,
2010-02-13, 03:37:04,VALID,1000.7,VALID,0,VALID,91.6394,VALID,0,VALID,22.6884,VALID,178,VALID,0.867188,
2010-02-13, 03:38:04,VALID,1000.66,VALID,0,VALID,91.5936,VALID,0,VALID,22.6672,VALID,173,VALID,0.642187,
2010-02-13, 03:39:04,VALID,1000.71,VALID,0,VALID,91.6317,VALID,0,VALID,22.6867,VALID,172,VALID,0.848828,
2010-02-13, 03:40:04,VALID,1000.74,VALID,0,VALID,91.647,VALID,0,VALID,22.6867,VALID,170,VALID,0.858984,
2010-02-13, 03:41:04,VALID,1000.69,VALID,0,VALID,91.7385,VALID,0,VALID,22.7062,VALID,189,VALID,0.75625,
2010-02-13, 03:42:04,VALID,1000.71,VALID,0,VALID,91.6394,VALID,0,VALID,22.7062,VALID,198,VALID,0.867969,
2010-02-13, 03:43:04,VALID,1000.69,VALID,0,VALID,91.6699,VALID,0,VALID,22.7257,VALID,189,VALID,0.517969,
2010-02-13, 03:44:04,VALID,1000.71,VALID,0,VALID,91.7843,VALID,0,VALID,22.7664,VALID,219,VALID,0,
2010-02-13, 03:45:04,VALID,1000.77,VALID,0,VALID,91.5936,VALID,0,VALID,22.7452,VALID,240,VALID,0,
2010-02-13, 03:46:04,VALID,1000.8,VALID,0,VALID,91.6012,VALID,0,VALID,22.7452,VALID,249,VALID,0,
2010-02-13, 03:47:04,VALID,1000.82,VALID,0,VALID,91.6546,VALID,0,VALID,22.7647,VALID,274,VALID,0,
2010-02-13, 03:48:04,VALID,1000.8,VALID,0,VALID,91.6317,VALID,0,VALID,22.7647,VALID,295,VALID,0,